[[{"header":{"parameterUnit":"m.s-1","parameterCategory":1,"la1":30.2991,"la2":30.254,"lo1":-89.0895,"lo2":-89.0444,"dy":0.0017,"dx":0.0017,"nx":28,"ny":28,"refTime":"2025-06-23T03:00:00:Z","depth":0,"parameterNumber":2,"parameterNumberName":"U-component_of_WINDS"},"data":[0,0,0,0,0,0,0,0,0,0,0,0,0,0,0,0,0,0,0,0,0,0,0,0,0,0,0,0,0,0,0,0,0,0,0,0,0,0,0,0,0,0,0,0,0,0,0,0,0,0,0,0,0,0,0,0,0,0,-1.1135,-1.1134,0,-1.0988,-1.0987,-1.0985,-1.0876,-1.0875,-1.0874,-1.0873,-1.072,-1.0717,-1.0714,0,0,0,0,0,0,0,0,0,0,0,0,0,-1.1321,-1.1319,-1.1135,-1.1134,-1.1132,-1.0989,-1.0987,-1.0984,-1.0876,-1.0875,-1.0873,-1.0872,-1.0721,-1.0718,-1.0714,0,0,0,0,0,0,0,0,0,0,0,0,0,-1.1214,-1.1318,-1.1136,-1.106,-1.1052,-1.0989,-1.0986,-1.0984,-1.0876,-1.0875,-1.0873,-1.0872,-1.0723,-1.0718,-1.0713,-1.0713,0,0,-1.0699,-1.0697,0,0,0,0,0,0,0,0,-1.122,-1.1207,-1.1073,-1.1065,-1.1056,-1.0949,-1.0996,-1.0893,-1.0876,-1.0943,-1.0873,-1.0871,-1.0797,-1.0786,-1.0762,-1.0706,-1.0699,-1.0698,-1.0695,-1.0693,-1.0692,0,0,0,0,0,0,0,-1.1228,-1.1213,-1.1077,-1.1071,-1.1061,-1.1034,-1.1017,-1.0976,-1.088,-1.0937,-1.0929,-1.0913,-1.0792,-1.0767,-1.0757,-1.0697,-1.0698,-1.0694,-1.0691,-1.0689,-1.0634,-1.0635,0,0,0,0,0,0,-1.1247,-1.122,-1.1082,-1.1073,-1.1136,-1.1031,-1.1013,-1.0985,-1.088,-1.0863,-1.0914,-1.0908,-1.0776,-1.0763,-1.0752,-1.0745,-1.0693,-1.0689,-1.0686,-1.0633,-1.0634,-1.0636,0,0,0,0,0,0,-1.1252,-1.1236,-1.1088,-1.1144,-1.1123,-1.103,-1.0999,-1.0983,-1.0957,-1.0863,-1.0845,-1.0906,-1.0774,-1.0758,-1.0724,-1.0738,-1.0687,-1.0682,-1.0631,-1.0633,-1.0635,-1.0731,0,0,0,0,0,0,-1.1258,-1.1238,-1.1237,-1.1145,-1.1121,-1.1063,-1.1,-1.0981,-1.0949,-1.094,-1.085,-1.0834,-1.0772,-1.0731,-1.0719,-1.073,-1.0679,-1.0629,-1.0632,-1.0634,-1.0726,-1.0736,-1.0744,0,0,0,0,0,-1.1265,-1.1269,-1.1238,-1.1221,-1.1117,-1.1063,-1.1049,-1.0978,-1.0951,-1.0949,-1.0889,-1.0837,-1.0739,-1.0729,-1.0714,-1.0724,-1.0628,-1.0631,-1.0634,-1.0722,-1.0734,-1.0744,0,0,0,0,0,0,-1.1364,-1.1256,-1.1219,-1.1194,-1.1139,-1.1045,-1.104,-1.0993,-1.0944,-1.0937,-1.0851,-1.0831,-1.0806,-1.0761,-1.0752,-1.0719,-1.0677,-1.0677,-1.0749,-1.0759,-1.0769,-1.0779,-1.0675,0,0,0,0,0,-1.1384,-1.1349,-1.1256,-1.1243,-1.1217,-1.1134,-1.1108,-1.1058,-1.0997,-1.0973,-1.091,-1.0853,-1.0809,-1.0782,-1.0736,-1.072,-1.0699,-1.0719,-1.0729,-1.0737,-1.0738,-1.0727,-1.0735,-1.0646,-1.0646,-1.0646,0,0,-1.1422,-1.1359,-1.1342,-1.1262,-1.1213,-1.1179,-1.1115,-1.1082,-1.1056,-1.0968,-1.0931,-1.0884,-1.0814,-1.0789,-1.0774,-1.0751,-1.0758,-1.0741,-1.0748,-1.0744,-1.0731,-1.0739,-1.0747,-1.0648,-1.0648,-1.0647,0,0,-1.1476,-1.1425,-1.1408,-1.1362,-1.129,-1.1234,-1.1231,-1.1145,-1.111,-1.1073,-1.1006,-1.0974,-1.09,-1.0854,-1.082,-1.086,-1.081,-1.0847,-1.0895,-1.0885,-1.0892,-1.0898,-1.0912,-1.0918,-1.0849,-1.0849,-1.0849,0,-1.1533,-1.148,-1.1406,-1.1377,-1.1344,-1.1264,-1.1247,-1.1205,-1.1122,-1.1101,-1.1076,-1.0983,-1.093,-1.0893,-1.0904,-1.0879,-1.0872,-1.0856,-1.0897,-1.0902,-1.0907,-1.0919,-1.0925,-1.0854,-1.0853,-1.0853,-1.0852,0,-1.1555,-1.1519,-1.1515,-1.1438,-1.1404,-1.1382,-1.1304,-1.1279,-1.1233,-1.1181,-1.1144,-1.1079,-1.1019,-1.1007,-1.0961,-1.0964,-1.0952,-1.0914,-1.0869,-1.0921,-1.0932,-1.0936,-1.0861,-1.0859,-1.0858,-1.0857,0,0,-1.1664,-1.1548,-1.1548,-1.1513,-1.1428,-1.1399,-1.1374,-1.1317,-1.1297,-1.1243,-1.1219,-1.116,-1.1125,-1.1087,-1.1036,-1.1027,-1.1063,-1.099,-1.0987,-1.1006,-1.1063,-1.1092,-1.1099,-1.1031,-1.1031,-1.1032,-1.1069,0,-1.1705,-1.1655,-1.1589,-1.1561,-1.1528,-1.1453,-1.1431,-1.1377,-1.1328,-1.1293,-1.1239,-1.1198,-1.1154,-1.1131,-1.112,-1.1062,-1.1074,-1.1058,-1.1008,-1.1007,-1.1027,-1.1104,-1.1134,-1.1173,-1.1073,-1.1073,-1.1074,0,-1.1744,-1.1696,-1.1666,-1.1586,-1.1569,-1.1551,-1.1494,-1.1461,-1.1399,-1.1364,-1.1324,-1.1269,-1.1238,-1.12,-1.1157,-1.1148,-1.1124,-1.1093,-1.1092,-1.1084,-1.1043,-1.1098,-1.1183,-1.1189,-1.1079,-1.1079,-1.1079,0,-1.1828,-1.1755,-1.1727,-1.17,-1.1605,-1.1594,-1.1555,-1.1491,-1.1462,-1.1412,-1.1392,-1.134,-1.1311,-1.1271,-1.1204,-1.1182,-1.1169,-1.1125,-1.1139,-1.1141,-1.1138,-1.1139,-1.122,-1.1124,-1.1124,-1.1124,-1.1124,0,-1.1879,-1.1864,-1.1764,-1.1747,-1.1728,-1.1652,-1.1635,-1.1588,-1.1533,-1.1506,-1.1438,-1.1414,-1.1327,-1.1292,-1.124,-1.1213,-1.12,-1.1171,-1.1157,-1.1177,-1.118,-1.1159,-1.1154,-1.1125,-1.1125,-1.1125,-1.1125,0,-1.1969,-1.1901,-1.1866,-1.1781,-1.176,-1.1749,-1.1676,-1.1657,-1.1605,-1.1572,-1.156,-1.1479,-1.1435,-1.1365,-1.13,-1.1265,-1.1247,-1.1224,-1.1268,-1.126,-1.1278,-1.1277,-1.1347,-1.1353,-1.1255,-1.1256,-1.1257,0,-1.2005,-1.1992,-1.1906,-1.1883,-1.1847,-1.1811,-1.1781,-1.1707,-1.1678,-1.1608,-1.1598,-1.1549,-1.1506,-1.1441,-1.1376,-1.1326,-1.1301,-1.1329,-1.1293,-1.1314,-1.1301,-1.1303,-1.1301,-1.1337,-1.1339,-1.134,-1.1341,0,-1.2078,-1.2046,-1.2006,-1.1955,-1.1921,-1.1877,-1.1829,-1.1815,-1.173,-1.1702,-1.1657,-1.1624,-1.1559,-1.1512,-1.1454,-1.1413,-1.1363,-1.1353,-1.1354,-1.1373,-1.14,-1.1386,-1.1291,-1.1351,-1.135,-1.135,-1.1349,-1.1349,-1.2142,-1.2127,-1.2064,-1.2022,-1.1979,-1.1937,-1.1915,-1.1862,-1.1824,-1.1766,-1.1724,-1.1683,-1.1622,-1.154,-1.1502,-1.1468,-1.1445,-1.1446,-1.1446,-1.1448,-1.1455,-1.1406,-1.1457,-1.1457,-1.1456,-1.1456,-1.1456,0,-1.2211,-1.2168,-1.213,-1.2066,-1.2033,-1.1991,-1.1937,-1.1912,-1.1876,-1.1825,-1.1785,-1.1734,-1.1689,-1.1622,-1.1571,-1.1557,-1.1533,-1.1547,-1.1546,-1.1538,-1.1478,-1.1483,-1.1567,-1.1567,-1.1567,-1.1567,-1.1567,-1.1567,-1.2243,-1.2215,-1.2176,-1.2127,-1.2084,-1.2043,-1.2016,-1.1977,-1.1935,-1.1883,-1.1845,-1.1802,-1.1744,-1.1689,-1.1646,-1.1627,-1.1612,-1.1632,-1.1607,-1.1552,-1.1542,-1.1532,-1.1536,-1.163,-1.163,-1.1669,-1.1669,-1.167]},{"header":{"parameterUnit":"m.s-1","parameterCategory":1,"la1":30.2991,"la2":30.254,"lo1":-89.0895,"lo2":-89.0444,"dy":0.0017,"dx":0.0017,"nx":28,"ny":28,"refTime":"2025-06-23T03:00:00:Z","depth":0,"parameterNumber":3,"parameterNumberName":"V-component_of_WINDS"},"data":[0,0,0,0,0,0,0,0,0,0,0,0,0,0,0,0,0,0,0,0,0,0,0,0,0,0,0,0,0,0,0,0,0,0,0,0,0,0,0,0,0,0,0,0,0,0,0,0,0,0,0,0,0,0,0,0,0,0,2.7278,2.7278,0,2.7269,2.7269,2.7269,2.731,2.7311,2.7312,2.7313,2.7298,2.7296,2.7295,0,0,0,0,0,0,0,0,0,0,0,0,0,2.7328,2.7327,2.7278,2.7278,2.7278,2.7269,2.7269,2.7269,2.7309,2.7311,2.7312,2.7314,2.7298,2.7296,2.7294,0,0,0,0,0,0,0,0,0,0,0,0,0,2.7311,2.7326,2.7278,2.7298,2.7299,2.7269,2.7269,2.7268,2.7309,2.7311,2.7313,2.7314,2.7299,2.7297,2.7294,2.7243,0,0,2.7287,2.7286,0,0,0,0,0,0,0,0,2.7312,2.7309,2.7295,2.7296,2.7298,2.7292,2.728,2.726,2.7309,2.7305,2.7313,2.7315,2.7294,2.7292,2.7286,2.7243,2.7242,2.7287,2.7286,2.7285,2.7284,0,0,0,0,0,0,0,2.7313,2.731,2.7274,2.7295,2.7296,2.7305,2.7305,2.7277,2.7289,2.7306,2.7309,2.7307,2.7295,2.7288,2.7286,2.7242,2.7287,2.7285,2.7283,2.7283,2.7156,2.7154,0,0,0,0,0,0,2.7312,2.731,2.7275,2.7274,2.731,2.7303,2.7302,2.7292,2.729,2.7291,2.7306,2.7309,2.7291,2.7289,2.7286,2.7226,2.7285,2.7282,2.7281,2.7158,2.7156,2.7153,0,0,0,0,0,0,2.7313,2.7309,2.7275,2.7293,2.729,2.73,2.7288,2.7291,2.7284,2.729,2.7292,2.7297,2.7293,2.7289,2.7254,2.7226,2.7281,2.7279,2.716,2.7157,2.7154,2.7106,0,0,0,0,0,0,2.7314,2.7309,2.729,2.7292,2.7288,2.7245,2.7287,2.729,2.7281,2.7285,2.7282,2.7283,2.7294,2.7257,2.7252,2.7224,2.7277,2.7163,2.7159,2.7155,2.711,2.7102,2.7095,0,0,0,0,0,2.7316,2.7276,2.7289,2.7285,2.7266,2.7243,2.7241,2.7256,2.7279,2.7259,2.7263,2.7283,2.723,2.7253,2.7247,2.7218,2.7165,2.716,2.7156,2.7114,2.7103,2.7095,0,0,0,0,0,0,2.7268,2.7276,2.7291,2.7251,2.7246,2.725,2.7226,2.7244,2.7231,2.7236,2.7253,2.7252,2.7214,2.7213,2.7238,2.7169,2.7201,2.7195,2.7171,2.7162,2.7154,2.7155,2.7275,0,0,0,0,0,2.7253,2.7235,2.7243,2.7206,2.7204,2.7215,2.7206,2.7218,2.7213,2.7211,2.7212,2.7205,2.7187,2.7174,2.7158,2.7111,2.711,2.7088,2.708,2.7074,2.7068,2.7043,2.7033,2.7139,2.7139,2.7139,0,0,2.7221,2.7223,2.7211,2.7197,2.7195,2.7175,2.7213,2.719,2.7175,2.7207,2.7174,2.7175,2.7168,2.7127,2.7109,2.7125,2.7039,2.7068,2.7063,2.7061,2.7037,2.7027,2.7019,2.7136,2.7136,2.7137,0,0,2.7153,2.7153,2.7123,2.7121,2.7118,2.7126,2.7119,2.7121,2.7123,2.7091,2.7115,2.7096,2.7065,2.7059,2.7052,2.6983,2.7001,2.6977,2.6936,2.6912,2.6903,2.6896,2.6871,2.6862,2.6972,2.6972,2.6972,0,2.7113,2.7085,2.7105,2.7081,2.7074,2.7104,2.7073,2.7069,2.706,2.7054,2.7072,2.7035,2.7032,2.699,2.6974,2.6967,2.6958,2.6977,2.6904,2.6896,2.689,2.6866,2.6857,2.6969,2.6969,2.697,2.697,0,2.7036,2.7017,2.6992,2.6985,2.6976,2.6948,2.6962,2.695,2.6963,2.697,2.6937,2.6935,2.6919,2.691,2.6922,2.687,2.688,2.6901,2.6933,2.6876,2.6855,2.6846,2.6965,2.6966,2.6967,2.6968,0,0,2.6936,2.6942,2.6932,2.693,2.6929,2.6914,2.6887,2.6874,2.6863,2.6856,2.6833,2.6807,2.6827,2.6819,2.683,2.6809,2.6755,2.6832,2.6833,2.6818,2.6696,2.668,2.667,2.6767,2.6765,2.6764,2.6697,0,2.6869,2.6826,2.6843,2.6798,2.678,2.6809,2.6786,2.6783,2.6788,2.6772,2.6777,2.6758,2.6786,2.6781,2.6762,2.6765,2.673,2.6771,2.6745,2.6744,2.6745,2.6658,2.6641,2.6578,2.6688,2.6687,2.6686,0,2.6784,2.6776,2.673,2.6734,2.6727,2.6706,2.6695,2.6681,2.6677,2.6682,2.6674,2.6691,2.6664,2.6698,2.6661,2.6688,2.6678,2.6679,2.6677,2.6674,2.6711,2.6652,2.6558,2.6548,2.6673,2.6674,2.6675,0,2.6715,2.6693,2.6662,2.6659,2.6663,2.6648,2.6648,2.6647,2.6638,2.6628,2.6622,2.6609,2.6601,2.659,2.6602,2.6626,2.6563,2.6597,2.6566,2.6565,2.655,2.6551,2.6452,2.6545,2.6545,2.6545,2.6546,0,2.6638,2.6608,2.6631,2.6612,2.658,2.66,2.6567,2.657,2.6569,2.655,2.6574,2.6556,2.6574,2.6557,2.6566,2.6534,2.653,2.6533,2.6535,2.653,2.653,2.6524,2.6528,2.6543,2.6543,2.6544,2.6544,0,2.6555,2.6569,2.6538,2.6545,2.6546,2.6522,2.6527,2.6509,2.6517,2.6493,2.6488,2.65,2.6481,2.6493,2.6473,2.648,2.6437,2.6446,2.6439,2.6441,2.6408,2.6411,2.6301,2.6288,2.639,2.6389,2.6389,0,2.6504,2.6482,2.6488,2.6478,2.6478,2.6461,2.6453,2.6472,2.6462,2.6458,2.644,2.6424,2.6412,2.6381,2.6386,2.6371,2.638,2.6342,2.6377,2.6373,2.6378,2.6379,2.6377,2.6335,2.6334,2.6333,2.6332,0,2.6413,2.6422,2.641,2.64,2.6391,2.6384,2.6378,2.6369,2.6388,2.6375,2.6358,2.6349,2.633,2.6313,2.6301,2.63,2.6318,2.6321,2.6313,2.6307,2.6303,2.6305,2.6419,2.6323,2.6324,2.6325,2.6325,2.6325,2.6344,2.6326,2.6328,2.6314,2.6313,2.6308,2.6292,2.6298,2.6285,2.6272,2.6284,2.6263,2.626,2.6246,2.6243,2.6226,2.624,2.6228,2.6225,2.6222,2.6217,2.6307,2.6223,2.6224,2.6224,2.6224,2.6224,0,2.6254,2.6257,2.6244,2.6237,2.6226,2.6247,2.6243,2.6231,2.6213,2.621,2.6199,2.6178,2.6163,2.6168,2.6154,2.6139,2.6147,2.6134,2.6135,2.6134,2.6205,2.6213,2.6128,2.6128,2.6128,2.6128,2.6128,2.6128,2.6205,2.6177,2.6186,2.6156,2.6159,2.614,2.6136,2.6131,2.6129,2.6106,2.6094,2.6098,2.6098,2.6084,2.607,2.6072,2.6066,2.605,2.6054,2.612,2.6129,2.6138,2.6146,2.6048,2.6048,2.5985,2.5985,2.5984]}]]